Edwards AFB, CA

6:46 PM PST on December 13, 2017 (GMT -0800)
Edwards Air Force Base

Weather History for KEDW - December, 2012

Change the Weather History Date:

Saturday, December 29, 2012

  Actual Average Record
Temperature  
Mean Temperature 32 °F -  
Max Temperature 42 °F 55 °F 64 °F (1998)
Min Temperature 21 °F 28 °F 17 °F (2015)
Degree Days  
Heating Degree Days 34    
Moisture  
Dew Point 23 °F    
Average Humidity 64    
Maximum Humidity 100    
Minimum Humidity 41    
Precipitation  
Precipitation 0.00 in - - ()
Sea Level Pressure  
Sea Level Pressure 30.02 in    
Wind  
Wind Speed 3 mph (SW)    
Max Wind Speed 6 mph    
Max Gust Speed -    
Visibility 11 miles    
Events Rain    
Averages and records for this station are not official NWS values.
T = Trace of Precipitation, MM = Missing Value Source: NWS Daily Summary

Daily Weather History Graph

Daily Weather History Graph

Search for Another Location

Airport or City:

Trip Planner

Search our weather history database for the weather conditions in past years. The results will help you decide how hot, cold, wet, or windy it might be!

Date:

Astronomy

Dec. 29, 2012 Rise Set
Actual Time 6:58 AM PST 4:49 PM PST
Civil Twilight 6:30 AM PST 5:17 PM PST
Nautical Twilight 5:59 AM PST 5:48 PM PST
Astronomical Twilight 5:28 AM PST 6:19 PM PST
Moon 6:22 PM PST (12/29) 7:38 AM PST (12/29)
Length of Visible Light 10h 46m
Length of Day
9h 50m
Full, 98% of the Moon is Illuminated
Dec 29
Full
Jan 4
Last Quarter
Jan 11
New
Jan 18
First Quarter
Jan 26
Full

Hourly Weather History & Observations

Time (PST) Temp. Windchill Dew Point Humidity Pressure Visibility Wind Dir Wind Speed Gust Speed Precip Events Conditions
12:58 AM 34.9 °F 30.8 °F 16.3 °F 47% 30.08 in 10.0 mi NNW 4.6 mph - N/A   Overcast
1:08 AM 33.8 °F 29.6 °F 17.6 °F 52% 30.06 in 10.0 mi NNW 4.6 mph - N/A   Scattered Clouds
1:58 AM 30.4 °F - 15.8 °F 55% 30.09 in 10.0 mi NNW 2.3 mph - N/A   Clear
2:58 AM 26.4 °F 20.9 °F 14.4 °F 60% 30.08 in 10.0 mi South 4.6 mph - N/A   Clear
3:58 AM 24.1 °F - 12.7 °F 62% 30.07 in 10.0 mi Calm Calm - N/A   Clear
4:58 AM 23.5 °F 19.1 °F 12.0 °F 61% 30.07 in 10.0 mi NW 3.5 mph - N/A   Clear
5:58 AM 23.2 °F - 12.4 °F 63% 30.08 in 40.0 mi NW 1.2 mph - N/A   Mostly Cloudy
6:33 AM 21.2 °F - 10.4 °F 63% 30.04 in 50.0 mi Calm Calm - N/A   Mostly Cloudy
6:58 AM 23.0 °F - 12.0 °F 63% 30.09 in 60.0 mi ENE 1.2 mph - N/A   Mostly Cloudy
7:58 AM 28.8 °F - 14.7 °F 56% 30.09 in 70.0 mi WSW 2.3 mph - N/A   Mostly Cloudy
8:58 AM 30.2 °F - 18.9 °F 63% 30.10 in 70.0 mi South 2.3 mph - N/A   Mostly Cloudy
9:58 AM 33.6 °F 30.6 °F 18.1 °F 53% 30.09 in 50.0 mi East 3.5 mph - N/A   Mostly Cloudy
10:58 AM 36.3 °F - 19.4 °F 50% 30.07 in 30.0 mi Calm Calm - N/A   Mostly Cloudy
11:58 AM 39.9 °F - 19.4 °F 44% 30.02 in 20.0 mi WNW 1.2 mph - N/A   Mostly Cloudy
12:58 PM 42.1 °F - 19.6 °F 41% 30.00 in 20.0 mi East 2.3 mph - N/A   Mostly Cloudy
1:38 PM 41.0 °F 38.0 °F 21.2 °F 45% 29.96 in 40.0 mi SE 4.6 mph - N/A Rain Light Rain Showers
1:58 PM 41.5 °F 39.6 °F 21.7 °F 45% 29.99 in 40.0 mi ESE 3.5 mph - 0.00 in Rain Light Rain Showers
1:59 PM 41.0 °F 39.0 °F 21.2 °F 45% 29.96 in 40.0 mi ESE 3.5 mph - N/A   Mostly Cloudy
2:58 PM 41.7 °F 39.8 °F 25.5 °F 53% 30.00 in 40.0 mi South 3.5 mph - 0.00 in   Mostly Cloudy
3:19 PM 42.8 °F 40.1 °F 24.8 °F 49% 29.95 in 40.0 mi South 4.6 mph - N/A Rain Light Rain Showers
3:28 PM 42.8 °F 41.1 °F 24.8 °F 49% 29.96 in 40.0 mi SSW 3.5 mph - N/A   Mostly Cloudy
3:40 PM 42.8 °F 40.1 °F 26.6 °F 53% 29.96 in 40.0 mi SSW 4.6 mph - N/A Rain Light Rain Showers
3:55 PM 41.0 °F - 28.4 °F 61% 29.95 in 40.0 mi South 2.3 mph - N/A   Mostly Cloudy
3:58 PM 41.0 °F - 28.4 °F 61% 29.99 in 40.0 mi South 2.3 mph - 0.00 in   Mostly Cloudy
4:38 PM 41.0 °F - 32.0 °F 70% 29.95 in 40.0 mi WSW 2.3 mph - N/A   Mostly Cloudy
4:58 PM 41.4 °F - 31.1 °F 67% 29.99 in 40.0 mi WSW 2.3 mph - N/A   Mostly Cloudy
5:58 PM 41.2 °F - 34.3 °F 77% 30.01 in 40.0 mi WNW 2.3 mph - N/A   Mostly Cloudy
6:58 PM 41.0 °F 39.0 °F 34.2 °F 77% 30.03 in 10.0 mi NNW 3.5 mph - N/A   Overcast
7:58 PM 40.5 °F 37.3 °F 33.8 °F 77% 30.02 in 10.0 mi North 4.6 mph - N/A   Overcast
8:18 PM 39.2 °F 35.9 °F 32.0 °F 75% 29.98 in 10.0 mi North 4.6 mph - N/A   Scattered Clouds
8:58 PM 34.9 °F - 32.0 °F 89% 30.03 in 10.0 mi ESE 1.2 mph - N/A   Clear
9:58 PM 30.9 °F - 30.0 °F 96% 30.04 in 10.0 mi Calm Calm - N/A   Clear
10:38 PM 28.4 °F - 28.4 °F 100% 30.00 in 10.0 mi WSW 2.3 mph - N/A   Mostly Cloudy
10:58 PM 30.0 °F 26.5 °F 29.8 °F 99% 30.04 in 10.0 mi SW 3.5 mph - N/A   Mostly Cloudy
11:18 PM 28.4 °F 24.6 °F 28.4 °F 100% 29.99 in 10.0 mi SSW 3.5 mph - N/A   Scattered Clouds
11:58 PM 28.0 °F 21.7 °F 27.9 °F 99% 30.02 in 10.0 mi SSW 5.8 mph - N/A   Partly Cloudy